Regional Weather Roundup
Issued by NWS

Home | Current Version | Previous Version | Graphics & Text | Print | Product List | Glossary On
Versions: 1 2 3 4 5 6 7 8 9 10 11 12 13 14 15 16 17 18 19 20 21 22 23 24 25 26 27 28 29 30 31 32 33 34 35 36 37 38 39 40 41 42 43 44 45 46 47 48 49 50
000
ASUS44 KMEG 290510
RWRTN
TENNESSEE HOURLY STATE WEATHER ROUNDUP
NATIONAL WEATHER SERVICE MEMPHIS TN
1200 AM CDT TUE JUL 29 2014

TNZ002-004-019-021-049-052-054-088>092-290600-
WEST TENNESSEE

CITY           SKY/WX    TMP DP  RH WIND       PRES   REMARKS
MEMPHIS INTL   MOCLDY    77  64  64 NE6       30.06S
NWS MEMPHIS      N/A     72 N/A N/A MISG        N/A
JACKSON        MOCLDY    67  63  87 CALM      30.07S
DYERSBURG      MOCLDY    72  55  56 N8        30.09R
UNION CITY     CLEAR     64  61  88 N5        30.08S
PARIS          CLEAR     63  58  83 CALM      30.09R
LEXINGTON      CLEAR     66  61  82 N5        30.06R
SAVANNAH       CLEAR     64  64 100 CALM      30.07R
$$

TNZ008-025-027-028-033-062-065-066-290600-
NORTH MIDDLE TENNESSEE

CITY           SKY/WX    TMP DP  RH WIND       PRES   REMARKS
NASHVILLE      CLEAR     70  58  65 N7        30.06R
DICKSON        CLEAR     64  57  77 N5        30.07R
CLARKSVILLE    CLEAR     64  57  78 N7        30.07R
LEBANON        CLEAR     67  58  72 N6        30.04R
SMYRNA         CLEAR     70  60  70 N8        30.06R
MURFREESBORO   CLEAR     69  59  70 NW5       30.04R
COOKEVILLE     PTCLDY    63  61  94 CALM      30.04R
LIVINGSTON       N/A     65  59  81 NW3       30.05R
CROSSVILLE     CLOUDY    66  58  75 N3        30.07R
$$

TNZ061-075-076-078-094-096-097-290600-
SOUTH MIDDLE TENNESSEE

CITY           SKY/WX    TMP DP  RH WIND       PRES   REMARKS
LEWISBURG      PTCLDY    69  61  76 CALM      30.04S
FAYETTEVILLE   CLEAR     66  59  77 N8        30.04S
TULLAHOMA      PTCLDY    63  57  82 CALM      30.06S
WINCHESTER     CLEAR     63  61  94 CALM      30.05R
MCMINNVILLE    CLEAR     64  61  88 CALM      30.04S
COLUMBIA       CLEAR     68  63  83 CALM      30.05R
SHELBYVILLE    PTCLDY    66  61  82 N3        30.06R
$$

TNZ017-018-042-046-047-290600-
NORTHEAST TENNESSEE

CITY           SKY/WX    TMP DP  RH WIND       PRES   REMARKS
TRI CITIES     PTCLDY    62  56  80 CALM      30.01R
ELIZABETHTON   MOCLDY    61  57  88 CALM        N/A
$$

TNZ012-013-036-069-073-074-290600-
CENTRAL EAST TENNESSEE

CITY           SKY/WX    TMP DP  RH WIND       PRES   REMARKS
KNOXVILLE      MOCLDY    69  59  70 N6        30.01R
OAK RIDGE      CLOUDY    69  59  70 CALM      30.03R
GATLINBURG     MOCLDY    64  61  88 CALM      30.01R
MORRISTOWN     CLEAR     64  61  88 CALM      30.03R
$$

TNZ083-085-099-290600-
SOUTHEAST TENNESSEE

CITY           SKY/WX    TMP DP  RH WIND       PRES   REMARKS
CHATTANOOGA    CLEAR     71  60  68 CALM      30.02R
$$

SKY/WX REPORTED AS FAIR MEANS FEW OR NO CLOUDS BELOW
12 THOUSAND FEET.



USA.gov is the U.S. government's official web portal to all federal, state and local government web resources and services.